Weather History for KBLI - October, 2013

Change the Weather History Date:

Tuesday, October 8, 2013

  Actual Average Record
Temperature  
Mean Temperature 51 °F 52 °F  
Max Temperature 58 °F 60 °F 73 °F (1951)
Min Temperature 43 °F 43 °F 30 °F (1985)
Degree Days  
Heating Degree Days 14 13  
Month to date heating degree days 104 100  
Cooling Degree Days 0 0  
Month to date cooling degree days 0 0  
Year to date cooling degree days 95 42  
Moisture  
Dew Point 44 °F    
Average Humidity 75    
Maximum Humidity 93    
Minimum Humidity 57    
Precipitation  
Precipitation 0.15 in 0.09 in 1.70 in (2004)
Month to date precipitation 1.70 0.67  
Year to date precipitation 22.20 22.80  
Sea Level Pressure  
Sea Level Pressure 30.01 in    
Wind  
Wind Speed 4 mph (WNW)    
Max Wind Speed 18 mph    
Max Gust Speed 23 mph    
Visibility 9 miles    
Events Rain    
T = Trace of Precipitation, MM = Missing Value Source: NWS Daily Summary

Daily Weather History Graph

Daily Weather History Graph

Search for Another Location

Airport or City:

Trip Planner

Search our weather history database for the weather conditions in past years. The results will help you decide how hot, cold, wet, or windy it might be!

Date:

Astronomy

Oct. 08, 2013 Rise Set
Actual Time 7:20 AM PDT 6:33 PM PDT
Civil Twilight 6:48 AM PDT 7:05 PM PDT
Nautical Twilight 6:12 AM PDT 7:41 PM PDT
Astronomical Twilight 5:35 AM PDT 8:18 PM PDT
Moon 11:39 AM PDT (10/8) 8:55 PM PDT (10/8)
Length of Visible Light 12h 16m
Length of Day
11h 13m
Waxing Crescent, 17% of the Moon is Illuminated
Oct 8
Waxing Crescent
Oct 11
First Quarter
Oct 18
Full
Oct 26
Last Quarter
Nov 3
New

Hourly Weather History & Observations

Time (PDT) Temp. Windchill Dew Point Humidity Pressure Visibility Wind Dir Wind Speed Gust Speed Precip Events Conditions
12:29 AM 53.6 °F - 46.4 °F 77% 29.95 in 10.0 mi WSW 9.2 mph - 0.01 in   Overcast
12:53 AM 52.0 °F - 48.0 °F 86% 29.98 in 10.0 mi Variable 4.6 mph - 0.01 in   Overcast
1:53 AM 52.0 °F - 46.0 °F 80% 29.98 in 10.0 mi SSW 3.5 mph - N/A   Overcast
2:53 AM 51.1 °F - 46.0 °F 83% 29.99 in 8.0 mi Variable 5.8 mph - 0.00 in Rain Light Rain
3:53 AM 50.0 °F - 46.9 °F 89% 29.98 in 7.0 mi South 4.6 mph - 0.01 in Rain Light Rain
4:53 AM 50.0 °F - 46.0 °F 86% 29.98 in 10.0 mi SSE 5.8 mph - 0.04 in   Overcast
5:53 AM 50.0 °F - 46.9 °F 89% 29.98 in 10.0 mi SE 5.8 mph - N/A   Overcast
6:53 AM 48.9 °F - 46.9 °F 93% 29.97 in 10.0 mi South 4.6 mph - N/A   Overcast
7:53 AM 48.9 °F - 45.0 °F 86% 29.97 in 10.0 mi Calm Calm - N/A   Scattered Clouds
8:53 AM 50.0 °F - 46.0 °F 86% 29.98 in 10.0 mi Calm Calm - N/A   Clear
9:53 AM 53.1 °F - 43.0 °F 69% 29.99 in 10.0 mi West 6.9 mph - N/A   Mostly Cloudy
10:53 AM 50.0 °F - 44.1 °F 80% 29.99 in 3.0 mi Calm Calm - 0.08 in Rain Rain
11:53 AM 46.9 °F - 44.1 °F 90% 30.00 in 7.0 mi NNE 3.5 mph - 0.02 in Rain Light Rain
12:45 PM 50.0 °F - 42.8 °F 76% 29.98 in 10.0 mi North 8.1 mph - 0.00 in   Overcast
12:53 PM 50.0 °F - 44.1 °F 80% 30.00 in 10.0 mi North 6.9 mph - 0.00 in   Overcast
1:16 PM 51.8 °F - 42.8 °F 71% 29.97 in 10.0 mi Calm Calm - N/A   Partly Cloudy
1:53 PM 55.0 °F - 45.0 °F 69% 30.00 in 10.0 mi North 6.9 mph - N/A   Partly Cloudy
2:53 PM 57.0 °F - 43.0 °F 59% 30.01 in 10.0 mi NNW 4.6 mph - N/A   Clear
3:53 PM 55.9 °F - 42.1 °F 60% 30.02 in 10.0 mi West 5.8 mph - N/A   Partly Cloudy
4:53 PM 55.9 °F - 43.0 °F 62% 30.02 in 10.0 mi NW 8.1 mph - N/A   Clear
5:53 PM 54.0 °F - 42.1 °F 64% 30.04 in 10.0 mi Calm Calm - N/A   Partly Cloudy
6:53 PM 46.9 °F - 43.0 °F 86% 30.06 in 10.0 mi Calm Calm - N/A   Clear
7:53 PM 50.0 °F - 43.0 °F 77% 30.07 in 10.0 mi WNW 4.6 mph - N/A   Mostly Cloudy
8:53 PM 48.0 °F - 42.1 °F 80% 30.09 in 10.0 mi Calm Calm - N/A   Partly Cloudy
9:53 PM 46.0 °F 43.1 °F 41.0 °F 83% 30.10 in 10.0 mi NW 5.8 mph - N/A   Clear
10:53 PM 44.1 °F - 41.0 °F 89% 30.12 in 10.0 mi Calm Calm - N/A   Clear
11:53 PM 44.1 °F 41.5 °F 41.0 °F 89% 30.12 in 10.0 mi NNW 4.6 mph - N/A   Clear